Temperature
17 17 17 17 17 17 17 18 18 19 19 18 18 18 17 17 17 17 16 16 17 16 16 16 16 16 16 15 15 15 15 15 15 15 15 15 15 15
17 16 16 17 17 17 17 17 17 18 18 19 18 18 17 17 17 17 16 16 17 17 16 16 16 16 16 15 15 15 15 15 15 15 15 15 14 14
16 16 16 16 17 17 17 17 17 17 17 18 18 17 17 17 17 16 16 16 16 16 16 16 16 16 16 15 15 15 15 15 15 15 15 14 14 14
16 16 16 16 16 16 16 16 17 17 17 17 17 17 16 16 16 16 16 16 16 16 16 16 16 16 15 15 15 15 15 15 15 14 14 14 14 14
16 16 16 16 16 16 16 16 16 16 16 16 16 16 16 16 16 15 15 16 16 16 15 15 15 15 15 15 15 15 15 15 14 14 14 14 14 14
16 15 15 15 15 15 15 15 15 16 16 16 16 16 16 15 15 15 15 15 15 15 15 15 15 15 15 15 15 15 15 14 14 14 14 14 14 14
15 15 15 15 15 15 15 15 15 15 15 15 15 15 15 15 15 15 15 15 15 15 15 14 14 14 14 14 14 14 14 14 14 14 14 13 13 13
15 15 15 15 15 15 15 15 15 15 15 15 15 15 14 14 14 14 14 14 14 14 14 14 14 14 14 14 13 13 13 13 13 13 13 13 13 13
15 15 15 15 15 14 14 14 14 14 14 14 14 14 13 13 13 13 13 13 13 13 13 13 14 13 13 13 13 13 13 13 13 13 12 12 12 12
14 14 14 14 14 14 14 14 14 14 13 13 13 13 13 13 13 12 12 12 13 13 12 12 13 13 13 12 12 12 12 12 12 12 12 12 12 11
14 14 14 14 13 13 13 13 13 13 13 13 12 12 12 12 12 12 12 12 12 12 12 12 12 12 12 12 12 11 11 11 11 11 11 11 11 11
13 13 13 13 13 13 12 12 12 12 12 12 12 11 11 11 11 11 11 11 11 12 11 11 11 11 11 11 11 11 11 10 10 10 10 10 10 10
13 12 12 12 12 12 12 12 12 12 11 11 11 11 11 10 10 10 10 10 10 10 10 10 10 10 10 10 10 10 10 10 10 10 10 9 9 9
12 12 12 12 11 11 11 11 11 11 11 11 11 10 10 10 9 9 9 9 9 9 9 9 8 8 9 9 9 10 10 9 9 9 9 9 9 9
11 11 11 11 10 10 10 10 10 10 10 10 10 9 9 9 9 9 8 8 8 8 8 8 8 8 8 8 8 9 9 9 9 8 8 8 8 8
10 10 10 10 10 9 9 9 9 9 9 9 9 8 8 8 8 8 8 8 8 8 8 7 7 7 7 7 7 8 8 8 8 8 8 8 8 8
9 9 9 9 9 9 9 8 8 8 8 8 8 8 7 7 7 7 7 7 7 8 8 7 7 7 7 7 7 7 7 7 7 7 7 7 7 7
9 9 9 8 8 8 8 8 7 7 7 7 7 7 7 7 7 7 6 6 7 7 7 7 7 7 7 7 7 7 7 7 7 7 6 7 7 7
8 8 8 7 7 7 7 7 7 6 6 6 6 6 6 6 6 6 6 6 6 6 6 6 6 6 6 7 7 6 6 6 6 6 6 6 6 6
7 7 7 6 6 6 6 6 6 6 5 5 5 5 5 5 5 5 5 5 5 5 5 5 5 5 5 5 5 6 6 5 5 5 6 6 6 6
6 6 6 6 6 5 5 5 5 5 5 5 5 4 4 5 5 5 5 4 4 5 5 5 5 5 4 5 5 5 6 5 5 5 5 5 5 6
5 5 5 5 5 5 4 4 4 4 4 4 4 4 4 4 4 4 4 4 4 4 4 4 4 4 4 4 5 5 5 5 5 5 5 5 5 5
4 4 4 4 4 4 4 4 3 4 3 3 3 3 3 3 3 3 4 4 4 4 4 4 4 4 4 4 4 5 5 5 5 5 5 5 5 5
Wind_Speed
9 9 9 8 7 7 6 7 7 7 6 6 6 6 7 7 6 9 10 12 15 15 15 15 15 15 15 15 16 16 16 16 16 16 16 17 17 17
7 7 8 8 7 7 7 7 7 7 7 5 5 5 4 6 7 9 10 10 14 15 15 15 15 16 16 16 16 17 17 17 17 18 18 18 18 18
8 8 9 8 7 7 7 8 8 8 8 7 5 4 4 7 5 7 10 10 11 16 16 15 15 16 16 17 17 18 18 18 18 18 18 19 19 19
9 8 9 7 8 8 7 8 7 7 8 9 7 6 6 6 6 8 9 10 10 11 14 14 14 15 16 17 17 17 18 18 18 18 19 19 19 19
8 8 8 7 7 7 7 7 6 7 7 8 8 5 6 5 6 7 8 7 10 8 12 14 14 15 16 16 17 17 17 17 18 18 18 18 18 19
6 6 6 7 7 7 6 7 7 7 6 8 7 6 5 5 5 6 7 6 7 8 7 8 11 14 16 16 16 16 17 17 17 17 17 18 18 18
5 5 6 4 2 3 5 5 5 6 6 6 6 6 5 4 5 6 7 7 6 6 7 8 8 9 10 14 16 15 15 15 16 16 17 17 18 19
5 5 5 4 4 4 3 3 4 5 6 6 6 6 5 5 5 6 7 8 8 5 6 8 8 9 8 9 7 10 13 14 15 16 17 17 18 18
4 4 4 3 4 5 5 6 4 4 5 6 6 6 5 5 5 7 7 8 9 7 7 9 8 9 9 8 4 7 10 13 14 15 16 16 17 17
2 2 2 1 1 2 3 3 3 2 2 3 3 4 4 4 5 7 8 9 9 7 6 8 8 8 8 8 5 8 10 12 14 15 16 16 17 17
2 3 1 1 3 3 2 2 2 1 2 3 1 1 2 3 5 6 7 7 8 7 4 7 8 8 8 9 7 8 11 13 14 15 16 17 17 16
3 4 5 4 4 3 0 0 0 1 1 1 2 3 3 2 4 5 6 7 7 7 4 5 8 8 9 7 7 7 9 11 14 16 17 17 16 14
3 3 4 6 6 5 3 2 2 3 2 2 2 2 2 2 3 3 5 6 7 7 6 6 8 9 9 10 10 10 10 9 10 11 14 16 17 14
4 5 6 8 8 7 5 4 3 4 1 2 2 2 3 4 4 5 6 6 7 8 9 8 8 9 10 12 12 10 10 10 10 10 11 10 13 17
7 10 8 6 5 6 7 4 3 3 3 3 4 4 5 5 5 5 6 6 8 9 9 8 8 9 10 11 12 12 12 11 10 10 10 10 10 10
7 8 7 6 5 5 4 4 5 5 5 4 5 5 5 5 5 6 7 8 8 8 7 8 9 10 10 12 12 12 12 11 10 10 10 11 11 11
3 3 4 4 5 5 5 5 5 5 5 5 5 6 6 6 6 6 7 8 9 9 9 7 8 9 10 11 12 11 11 11 10 10 10 12 12 12
3 6 5 5 5 5 5 5 5 5 6 6 6 6 7 7 7 7 7 8 9 9 9 9 9 10 10 9 7 10 10 11 11 11 12 13 13 12
6 7 6 6 6 5 5 5 6 6 6 6 7 7 7 8 8 8 8 8 9 9 9 9 9 10 11 12 9 5 10 11 12 12 12 12 13 12
7 6 6 6 6 6 6 6 6 6 6 7 7 7 8 8 8 8 8 9 10 10 10 9 8 9 10 12 12 12 11 11 11 12 12 12 12 11
7 7 6 6 6 6 6 6 7 6 7 7 7 8 8 8 9 9 10 10 10 10 10 10 9 10 11 10 11 11 11 9 9 10 12 11 11 11
7 6 6 7 6 6 6 7 7 7 8 7 8 8 8 9 9 10 10 10 10 10 11 11 11 10 10 11 12 13 13 11 9 10 11 10 9 9
7 6 6 6 6 6 7 7 8 8 8 9 9 9 9 9 9 9 10 9 9 10 11 11 10 10 10 11 11 12 14 13 10 9 8 6 9 12
Wind_Direction
219 219 233 239 236 242 246 251 257 261 248 214 226 220 226 227 199 225 233 208 215 225 231 235 238 240 242 244 245 246 248 250 252 253 254 255 255 256
222 229 231 237 232 235 240 245 252 262 268 254 230 234 238 249 205 231 241 207 216 224 229 234 239 243 244 245 245 246 248 251 253 254 255 255 255 255
218 220 226 239 236 234 234 239 244 250 258 261 250 238 236 262 249 245 247 241 231 214 222 232 239 244 246 246 246 247 249 251 253 254 255 255 255 254
217 221 226 225 230 245 246 245 246 251 257 263 262 248 232 244 250 252 252 248 252 207 209 225 235 241 245 246 248 249 251 252 253 255 256 256 257 256
216 219 225 226 229 234 241 247 246 243 247 257 257 260 256 251 254 251 252 257 261 232 207 218 228 236 243 246 247 249 251 253 254 254 256 256 256 256
217 219 223 226 232 235 236 244 250 253 247 253 258 256 255 255 260 265 262 248 260 268 259 248 231 230 236 238 242 247 250 252 254 256 257 258 258 258
212 215 220 218 248 248 248 244 247 252 252 252 258 262 263 266 265 270 275 278 264 266 271 265 251 247 239 232 235 241 247 250 253 256 257 259 260 260
210 213 212 201 207 212 257 286 281 259 263 267 267 272 281 284 290 285 285 281 278 271 274 272 271 270 265 264 242 231 240 249 255 259 261 262 263 263
217 221 231 209 198 216 205 207 225 236 260 271 275 284 286 291 289 282 283 286 287 292 289 281 278 275 274 276 232 238 247 254 260 263 264 265 265 266
216 229 229 243 259 267 244 226 228 221 230 241 264 281 299 310 293 283 285 280 275 271 279 281 287 288 292 290 250 237 248 258 262 264 267 268 270 270
74 58 60 64 32 358 250 234 220 186 116 116 103 296 327 319 307 292 290 287 289 291 293 287 294 297 292 286 268 231 242 252 257 260 262 264 266 269
105 89 67 52 44 28 328 323 234 270 279 210 207 229 258 250 243 281 296 294 296 295 315 305 299 304 298 291 294 289 273 259 251 252 253 255 256 266
108 90 68 65 60 46 24 28 342 299 280 280 282 294 303 311 315 322 322 308 303 298 316 314 302 301 296 297 298 294 291 291 285 274 256 248 245 250
78 76 74 73 72 59 53 32 338 294 311 330 335 339 336 338 342 334 323 312 303 297 300 302 297 300 298 296 297 298 297 294 292 291 290 276 254 247
77 82 86 91 99 84 71 23 349 12 14 5 357 353 346 343 326 316 306 299 287 281 283 285 288 293 291 291 295 299 300 298 292 292 291 290 289 284
91 108 121 104 90 77 71 43 37 35 16 8 355 344 335 328 323 326 321 317 309 303 294 286 280 284 286 290 292 294 296 297 300 298 297 295 291 285
82 84 68 63 56 51 48 42 28 22 14 4 351 342 333 327 323 321 317 312 308 309 311 307 298 290 285 286 289 292 296 298 300 303 300 294 291 288
40 70 60 48 43 37 29 24 23 17 3 349 342 336 330 324 320 318 313 310 309 309 311 313 313 308 301 291 279 296 302 305 307 304 298 293 293 292
57 59 50 42 35 28 21 14 9 8 353 343 341 338 331 325 321 321 319 319 316 315 316 316 314 311 308 307 309 301 308 306 304 302 301 300 298 300
57 54 47 38 31 22 14 6 359 356 352 345 341 339 334 328 324 322 321 324 319 314 312 312 315 318 311 306 305 302 291 293 301 302 304 302 297 292
53 49 40 30 24 18 10 2 356 352 351 340 339 339 334 329 326 324 320 319 312 310 312 312 318 311 299 296 294 297 303 295 291 295 301 301 302 302
46 41 34 25 20 13 6 359 352 351 349 344 344 340 335 330 326 322 320 320 317 314 314 312 313 310 307 305 304 306 310 315 306 284 273 273 292 300
37 29 24 21 18 8 3 359 355 356 355 350 346 341 337 333 327 322 321 318 317 318 319 318 320 317 313 308 309 311 315 319 319 318 314 282 260 260
Height
1555 1556 1558 1560 1561 1562 1563 1564 1565 1564 1563 1564 1565 1565 1565 1565 1565 1565 1565 1565 1565 1565 1565 1565 1565 1565 1565 1565 1564 1564 1564 1564 1563 1563 1562 1562 1561 1561
1551 1552 1554 1556 1558 1558 1559 1560 1561 1561 1561 1561 1562 1562 1561 1562 1561 1561 1561 1561 1561 1561 1561 1561 1561 1560 1560 1560 1560 1559 1559 1558 1558 1558 1557 1557 1556 1556
1547 1549 1550 1552 1553 1555 1556 1556 1557 1558 1558 1558 1558 1558 1557 1557 1557 1557 1557 1557 1557 1556 1556 1555 1555 1555 1555 1554 1554 1554 1553 1553 1552 1552 1551 1551 1550 1550
1543 1545 1547 1548 1549 1550 1551 1552 1553 1553 1554 1554 1554 1555 1553 1553 1552 1552 1553 1553 1552 1551 1550 1550 1550 1550 1549 1549 1548 1548 1547 1547 1546 1546 1545 1545 1544 1544
1540 1541 1543 1544 1545 1546 1547 1548 1549 1549 1549 1550 1550 1550 1550 1549 1548 1548 1548 1547 1547 1547 1545 1544 1544 1543 1543 1542 1542 1541 1541 1540 1540 1539 1538 1538 1537 1537
1536 1537 1538 1540 1541 1542 1543 1543 1544 1545 1545 1545 1546 1546 1545 1545 1544 1544 1544 1543 1542 1542 1541 1540 1538 1537 1536 1535 1535 1534 1534 1533 1532 1532 1531 1530 1530 1529
1532 1533 1535 1536 1537 1538 1539 1540 1541 1541 1541 1542 1542 1542 1541 1541 1540 1540 1539 1538 1537 1536 1535 1535 1533 1532 1530 1528 1527 1527 1526 1526 1525 1524 1523 1522 1522 1521
1529 1530 1531 1532 1533 1534 1535 1536 1537 1537 1538 1538 1538 1538 1537 1537 1536 1535 1535 1534 1533 1532 1530 1529 1528 1527 1525 1524 1522 1520 1519 1519 1517 1516 1515 1514 1513 1512
1526 1527 1528 1529 1530 1530 1531 1532 1532 1533 1533 1534 1534 1533 1533 1532 1531 1531 1530 1529 1528 1527 1525 1523 1523 1521 1520 1518 1516 1514 1513 1511 1510 1509 1507 1506 1505 1504
1523 1523 1525 1526 1527 1527 1528 1528 1528 1528 1529 1529 1529 1529 1529 1528 1527 1527 1526 1524 1523 1522 1521 1519 1517 1516 1514 1512 1510 1507 1506 1504 1503 1501 1500 1498 1497 1495
1520 1521 1522 1523 1524 1524 1525 1525 1525 1525 1525 1525 1525 1525 1525 1524 1523 1523 1522 1521 1519 1518 1516 1514 1512 1510 1508 1506 1504 1502 1499 1497 1496 1494 1492 1490 1489 1487
1519 1519 1520 1521 1521 1521 1522 1523 1523 1523 1523 1523 1522 1522 1521 1521 1520 1519 1518 1517 1515 1514 1512 1510 1508 1506 1503 1501 1500 1497 1495 1492 1489 1487 1485 1483 1482 1480
1519 1519 1519 1519 1520 1520 1520 1520 1520 1521 1521 1521 1520 1520 1519 1518 1517 1515 1514 1513 1511 1510 1508 1506 1504 1502 1500 1496 1494 1492 1490 1487 1485 1482 1480 1477 1475 1474
1518 1518 1518 1518 1518 1519 1519 1519 1519 1519 1520 1519 1519 1518 1517 1516 1514 1512 1510 1508 1506 1505 1503 1501 1499 1498 1495 1492 1489 1487 1485 1482 1479 1477 1474 1472 1470 1467
1517 1517 1517 1517 1518 1518 1517 1517 1517 1518 1517 1517 1516 1516 1514 1512 1510 1508 1507 1504 1502 1501 1499 1497 1495 1493 1491 1488 1484 1482 1479 1476 1474 1471 1468 1466 1464 1462
1517 1517 1517 1517 1517 1517 1517 1517 1517 1516 1516 1515 1514 1513 1512 1510 1508 1506 1504 1502 1500 1498 1496 1493 1490 1488 1486 1483 1480 1476 1474 1471 1468 1466 1463 1460 1458 1456
1518 1519 1519 1519 1519 1519 1518 1518 1517 1516 1515 1514 1513 1511 1509 1507 1505 1503 1501 1499 1497 1495 1492 1490 1487 1484 1481 1478 1475 1472 1469 1467 1464 1461 1457 1454 1452 1450
1520 1520 1520 1520 1520 1519 1519 1518 1517 1516 1514 1513 1512 1510 1508 1505 1503 1501 1499 1497 1495 1492 1489 1486 1483 1480 1477 1474 1472 1468 1465 1462 1459 1456 1452 1449 1445 1444
1521 1521 1521 1521 1521 1520 1519 1518 1517 1516 1514 1512 1510 1508 1506 1504 1502 1499 1497 1495 1492 1489 1486 1483 1480 1477 1473 1470 1467 1465 1461 1457 1454 1451 1448 1444 1440 1437
1523 1523 1523 1522 1521 1520 1519 1518 1517 1515 1513 1511 1509 1507 1505 1502 1500 1497 1495 1492 1489 1486 1483 1480 1478 1474 1471 1468 1463 1460 1457 1454 1450 1446 1442 1439 1435 1432
1524 1524 1524 1523 1522 1521 1519 1518 1516 1515 1512 1510 1508 1506 1503 1501 1498 1496 1493 1490 1487 1484 1480 1477 1474 1471 1467 1464 1460 1456 1453 1450 1446 1442 1438 1434 1430 1427
1526 1525 1524 1523 1522 1520 1519 1517 1516 1514 1511 1509 1507 1504 1502 1499 1497 1493 1491 1487 1484 1481 1478 1474 1471 1468 1465 1461 1457 1452 1449 1445 1442 1438 1434 1431 1428 1423
1527 1526 1525 1524 1522 1520 1519 1517 1515 1513 1510 1508 1505 1503 1500 1497 1494 1491 1488 1485 1482 1479 1475 1472 1468 1465 1462 1458 1454 1450 1446 1441 1437 1434 1431 1428 1425 1421